{"data":{"norad_id":41896,"intl_designator":"2016-080A","name":"ARASE (ERG)","alt_names":[],"object_type":"PAYLOAD","status":"ACTIVE","operator":null,"country":"JPN","launch_date":"2016-12-20","launch_site_code":"KSCUT","launch_vehicle":null,"mission":null,"orbit_class":"UNKNOWN","rcs_meters":1.3395,"size_class":null,"mass_kg":null,"dimensions":null,"purposes":[],"wikipedia_slug":null,"has_3d_model":false,"image_url":null,"decayed_at":null,"tle_current":{"epoch":"2026-05-24T16:15:17.812800Z","epoch_age_seconds":106073,"freshness":"FRESH","line1":"1 41896U 16080A   26144.67728950  .00000611  00000+0  18995-2 0  9995","line2":"2 41896  31.9400  17.6224 6992782  33.1321 355.6610  2.57649789 87676","mean_motion":2.57649789,"eccentricity":0.6992782,"inclination_deg":31.94,"raan_deg":17.6224,"arg_perigee_deg":33.1321,"mean_anomaly_deg":355.661,"bstar":0.0018995,"rev_number":8767,"period_min":558.89818718229,"perigee_km":380.8284448909,"apogee_km":31814.513599512,"semimajor_km":22475.808022202,"source":"CELESTRAK","updated_at":"2026-05-25T13:37:55.656281Z"}}}